Address 0x5c88540c943e6fb3501066aa1b7de9da27147549 3

Overview

Balance:
0.32187088963682955 AVAX

AVAX Value:
$10.44 (@ $32.42/AVAX)
Txn Hash Method
Block
From
To
Value [Txn Fee]
0xb6aa94312cf158fa8602807755b2d661d2458bd2c2e0174b84af6644b3ad3bc40xd9459372147744032022-05-16 14:31:161 hr 15 mins ago0x5c88540c943e6fb3501066aa1b7de9da27147549OUT xPollinate: Transaction Manager0 AVAX0.003483478 26.5
0x18a6588f6bb3e03c36921ffbf9203d4c4c4af05b9d6eb36767559ed8f02589a7Approve147743472022-05-16 14:29:241 hr 17 mins ago0x5c88540c943e6fb3501066aa1b7de9da27147549OUT Avalanche Bridge: USDT.e0 AVAX0.001248413155 26.62997346
0xb9f954271c79cf53ed72cc3ee566f8c77f8288fcb154e9402450394410a0dcadSwap Exact Token...147743112022-05-16 14:28:131 hr 18 mins ago0x5c88540c943e6fb3501066aa1b7de9da27147549OUT Trader Joe: Router0 AVAX0.0049312525 26.5
0xf62e0463b3e91f3f578262c634e29979f438f1acc22b04445991bddc932113b2Swap Exact Token...147742832022-05-16 14:27:171 hr 19 mins ago0x5c88540c943e6fb3501066aa1b7de9da27147549OUT Trader Joe: Router0 AVAX0.003334601 26.5
0x6c2f17504ce79b3ce47b108004008be3514db2b0921b268ac7f11540add7f68fWithdraw147742312022-05-16 14:25:271 hr 21 mins ago0x5c88540c943e6fb3501066aa1b7de9da27147549OUT 0x752feacfda5c3b440fd6d40ecf338a86b568c2d20 AVAX0.00234420202 26.855948365
0x5e1eaee42f69c82b8203a0a4772cf0fab040bafb835476066126d9fd2a8d2171Withdraw147742242022-05-16 14:25:151 hr 21 mins ago0x5c88540c943e6fb3501066aa1b7de9da27147549OUT 0x752feacfda5c3b440fd6d40ecf338a86b568c2d20 AVAX0.002312814 26.5
0x4214be54781451bc7d82b73791801e3a542f3d09f58531be524955c32ba393beStake147642312022-05-16 8:55:316 hrs 51 mins ago0x5c88540c943e6fb3501066aa1b7de9da27147549OUT 0x38b0b6ef43c4262659523986d731f9465f8714390 AVAX0.003268934 26.5
0xc5e59a6f798092b0d0af5cc782496f63b21a5eb7df589310e86cb9c9faa119caSwap Exact Token...147642052022-05-16 8:54:396 hrs 52 mins ago0x5c88540c943e6fb3501066aa1b7de9da27147549OUT Trader Joe: Router0 AVAX0.002626398046 26.626365296
0x7d6b918491c68f9372c704251c5813195639d1f4d338478167cd2b92c0c37be4Deposit147641422022-05-16 8:52:336 hrs 54 mins ago0x5c88540c943e6fb3501066aa1b7de9da27147549OUT 0x752feacfda5c3b440fd6d40ecf338a86b568c2d20 AVAX0.002735876 26
0xde2648d5cab04761f47fed291b71b47935752adae4085d0b6468a959a2c16673Deposit147641092022-05-16 8:51:286 hrs 55 mins ago0x5c88540c943e6fb3501066aa1b7de9da27147549OUT 0x752feacfda5c3b440fd6d40ecf338a86b568c2d20 AVAX0.003241639 26.5
0x63adddf45e830e43e028f1e26e4efd6562df3aa36e70ac85cb6e416ba591a178Add Liquidity147640792022-05-16 8:50:286 hrs 56 mins ago0x5c88540c943e6fb3501066aa1b7de9da27147549OUT Trader Joe: Router0 AVAX0.004249858 26.5
0x39617cc93d72158806a4d1e9b121e4aab1b0ef8bde777258d48d95056109578eAdd Liquidity147640652022-05-16 8:50:006 hrs 56 mins ago0x5c88540c943e6fb3501066aa1b7de9da27147549OUT Trader Joe: Router0 AVAX0.0040557985 26.5
0x4a6d77888f96f39ad23f808efb7004966ba9f33cb8063dc5764906431a36d567Swap Exact Token...147640362022-05-16 8:49:026 hrs 57 mins ago0x5c88540c943e6fb3501066aa1b7de9da27147549OUT Trader Joe: Router0 AVAX0.0026132975 26.5
0x338389c5c0ddb99021c0b813fb5d777c38440e0f5507f2ed3db433ea5d5646e7Swap Exact Token...147639962022-05-16 8:47:416 hrs 59 mins ago0x5c88540c943e6fb3501066aa1b7de9da27147549OUT Trader Joe: Router0 AVAX0.0008432035 26.5
0xaabe4c2febc114667cb0f9f4723248470e138f751bf83bc857d1c855568540f5Swap Exact Token...147639692022-05-16 8:46:486 hrs 59 mins ago0x5c88540c943e6fb3501066aa1b7de9da27147549OUT Trader Joe: Router0 AVAX0.0026132975 26.5
0x0ca5d9328bf201c55b8651d1787efe57f08f57ccdf7a46fc0cd6d06dc0ccddabSwap Exact Token...147639242022-05-16 8:45:187 hrs 1 min ago0x5c88540c943e6fb3501066aa1b7de9da27147549OUT Trader Joe: Router0 AVAX0.0008432035 26.5
0xbf2dc74726d752c48ecfd9121b90770e23b6d7c34da1d182c7df05f2a0cda76aSwap Exact Token...147638912022-05-16 8:44:127 hrs 2 mins ago0x5c88540c943e6fb3501066aa1b7de9da27147549OUT Trader Joe: Router0 AVAX0.000827294 26
0x4309ebbbc953c1f47be98976d0ac24c5718a21fc70e6aa3eeddaffe455dd8ddaSwap Exact Token...147638272022-05-16 8:42:047 hrs 4 mins ago0x5c88540c943e6fb3501066aa1b7de9da27147549OUT Trader Joe: Router0 AVAX0.002895019 26.5
0x2fc8b072e6c4a7bee38bc3e13efc47bc7d3ab6516dd7c6df67f50bc2cf833d2dSwap Exact Token...147637812022-05-16 8:40:297 hrs 6 mins ago0x5c88540c943e6fb3501066aa1b7de9da27147549OUT Trader Joe: Router0 AVAX0.0046554405 26.5
0x6259f65a2b0472c63ae2040b18e9406942e1c3eac26fab327cb05140278a7b09Deposit147585582022-05-16 5:46:1210 hrs ago0x5c88540c943e6fb3501066aa1b7de9da27147549OUT 0x752feacfda5c3b440fd6d40ecf338a86b568c2d20 AVAX0.002788489 26.5
0x80e441941067848eda10121ea895eeb6484b3f114dfc91201469c7b5e555fd67Zap In Token147585362022-05-16 5:45:2710 hrs 1 min ago0x5c88540c943e6fb3501066aa1b7de9da27147549OUT 0xd2dc5688cf8e060392e0061b57a30ba6961327d70 AVAX0.006200947 26.5
0x4c80d46a40067abc5dece57f08cdb670475bd68d8994b4778d9379b1bf54a50aDeposit147584902022-05-16 5:43:5610 hrs 2 mins ago0x5c88540c943e6fb3501066aa1b7de9da27147549OUT 0x752feacfda5c3b440fd6d40ecf338a86b568c2d20 AVAX0.003106277 26.5
0x49abd15171b87f61b8d80fe19d1f8ee39445cb7b50b507d8250ce42d7d1a5418Deposit147584722022-05-16 5:43:2010 hrs 3 mins ago0x5c88540c943e6fb3501066aa1b7de9da27147549OUT 0x752feacfda5c3b440fd6d40ecf338a86b568c2d20 AVAX0.003106277 26.5
0x6f67b6f35ebb456a11922d467ff704ec47504515320bccf0fb3a7e5f157d4af6Swap Exact Token...147584532022-05-16 5:42:4110 hrs 4 mins ago0x5c88540c943e6fb3501066aa1b7de9da27147549OUT Trader Joe: Router0 AVAX0.0028934555 26.5
0xaa3b463fac8d195b54c10588688990d5a2822dd59036b7dd10e87d64c1f2d2a0Add Liquidity147584312022-05-16 5:41:5810 hrs 4 mins ago0x5c88540c943e6fb3501066aa1b7de9da27147549OUT Trader Joe: Router0 AVAX0.004606056 26
[ Download CSV Export 
Latest 4 internal transactions
Parent Txn Hash Block From To Value
0x767562b2c1a9b905554556a3123e450e5d93ba9815afa0b6e347fc236fd6f612146242102022-05-13 3:03:113 days 12 hrs ago Trader Joe: Router0x5c88540c943e6fb3501066aa1b7de9da2714754919.250092109700844471 AVAX
0xe959bddf789deca89837ba2f802dfe96e4a11f68f262d8fa3a8ae6b098b00045146241492022-05-13 3:01:063 days 12 hrs ago Trader Joe: Router0x5c88540c943e6fb3501066aa1b7de9da2714754919.386711784675722801 AVAX
0xfecd3fbeb9be9803f1c74575b5ba5a4dc0fbfdc29b04bef5c95f973a272ae36a146240352022-05-13 2:57:183 days 12 hrs ago SushiSwap: Router0x5c88540c943e6fb3501066aa1b7de9da27147549138.26904068833842825 AVAX
0x6015bc7d99000c644cb1e2c25eba4e5a798811a2e3bd5e3f2e0b23ab42320cf6132150892022-04-10 0:10:5536 days 15 hrs ago Trader Joe: Router0x5c88540c943e6fb3501066aa1b7de9da2714754922.679850157728517773 AVAX
[ Download CSV Export 
Loading

Contract Name:
0

Compiler Version
0

Optimization Enabled:
0

Other Settings:
-NA-
Block Transaction Gas Used Reward
Age Block Fee Address BC Fee Address Voting Power Jailed Incoming
Block Uncle Number Difficulty Gas Used Reward
Loading
Make sure to use the "Vote Down" button for any spammy posts, and the "Vote Up" for interesting conversations.